Time,TemperatureF,DewpointF,PressureIn,WindDirection,WindDirectionDegrees,WindSpeedMPH,WindSpeedGustMPH,Humidity,HourlyPrecipIn,Conditions,Clouds,dailyrainin,SoftwareType,DateUTC
2013-05-14 00:01:00,60.1,41.9,29.93,NNW,338,8.5,15.4,51,0.00,,,0.00,WUHU216HW,2013-05-14 06:01:00,
2013-05-14 00:06:00,59.4,41.8,29.93,NNW,338,10.1,12.8,52,0.00,,,0.00,WUHU216HW,2013-05-14 06:06:00,
2013-05-14 00:11:00,59.0,41.4,29.94,North,0,15.7,15.7,52,0.00,,,0.00,WUHU216HW,2013-05-14 06:11:00,
2013-05-14 00:16:00,58.5,41.0,29.93,North,0,9.6,15.7,52,0.00,,,0.00,WUHU216HW,2013-05-14 06:16:00,
2013-05-14 00:21:00,58.0,41.0,29.94,North,0,12.5,13.2,53,0.00,,,0.00,WUHU216HW,2013-05-14 06:21:00,
2013-05-14 00:26:00,57.6,40.6,29.95,NNW,338,11.2,17.2,53,0.00,,,0.00,WUHU216HW,2013-05-14 06:26:00,
2013-05-14 00:31:00,57.2,40.3,29.95,North,0,7.6,17.2,53,0.00,,,0.00,WUHU216HW,2013-05-14 06:31:00,
2013-05-14 00:36:00,57.1,40.2,29.95,North,0,12.5,12.5,53,0.00,,,0.00,WUHU216HW,2013-05-14 06:36:00,
2013-05-14 00:41:00,56.7,40.2,29.95,NNW,338,6.7,12.5,54,0.00,,,0.00,WUHU216HW,2013-05-14 06:41:00,
2013-05-14 00:46:00,56.5,40.1,29.95,NNE,23,8.1,11.4,54,0.00,,,0.00,WUHU216HW,2013-05-14 06:46:00,
2013-05-14 00:51:00,56.5,40.1,29.96,NNW,338,6.5,8.5,54,0.00,,,0.00,WUHU216HW,2013-05-14 06:51:00,
2013-05-14 00:56:00,56.5,40.1,29.96,NNW,338,4.9,8.1,54,0.00,,,0.00,WUHU216HW,2013-05-14 06:56:00,
2013-05-14 01:01:00,56.2,39.7,29.96,North,0,6.9,8.1,54,0.00,,,0.00,WUHU216HW,2013-05-14 07:01:00,
2013-05-14 01:06:00,56.2,39.7,29.96,NNW,338,6.0,9.8,54,0.00,,,0.00,WUHU216HW,2013-05-14 07:06:00,
2013-05-14 01:11:00,56.2,39.7,29.96,North,0,7.4,9.8,54,0.00,,,0.00,WUHU216HW,2013-05-14 07:11:00,
2013-05-14 01:16:00,56.0,39.1,29.96,NNW,338,6.3,7.4,53,0.00,,,0.00,WUHU216HW,2013-05-14 07:16:00,
2013-05-14 01:21:00,56.0,39.1,29.97,NNW,338,7.4,8.5,53,0.00,,,0.00,WUHU216HW,2013-05-14 07:21:00,
2013-05-14 01:26:00,56.0,39.1,29.97,NNW,338,4.7,8.5,53,0.00,,,0.00,WUHU216HW,2013-05-14 07:26:00,
2013-05-14 01:31:00,56.0,39.1,29.96,North,0,7.6,8.5,53,0.00,,,0.00,WUHU216HW,2013-05-14 07:31:00,
2013-05-14 01:36:00,56.0,39.1,29.97,NNW,338,5.4,8.5,53,0.00,,,0.00,WUHU216HW,2013-05-14 07:36:00,
2013-05-14 01:41:00,55.8,38.9,29.97,North,0,9.8,9.8,53,0.00,,,0.00,WUHU216HW,2013-05-14 07:41:00,
2013-05-14 01:46:00,55.6,38.7,29.97,NNW,338,5.1,9.8,53,0.00,,,0.00,WUHU216HW,2013-05-14 07:46:00,
2013-05-14 01:51:00,55.3,38.4,29.97,NNW,338,6.3,6.7,53,0.00,,,0.00,WUHU216HW,2013-05-14 07:51:00,
2013-05-14 01:56:00,55.1,38.6,29.97,North,0,5.4,6.3,54,0.00,,,0.00,WUHU216HW,2013-05-14 07:56:00,
2013-05-14 02:01:00,55.1,38.6,29.97,North,0,6.3,8.3,54,0.00,,,0.00,WUHU216HW,2013-05-14 08:01:00,
2013-05-14 02:06:00,55.3,38.4,29.97,NNW,338,5.8,8.3,53,0.00,,,0.00,WUHU216HW,2013-05-14 08:06:00,
2013-05-14 02:11:00,55.1,38.2,29.97,North,0,3.4,6.7,53,0.00,,,0.00,WUHU216HW,2013-05-14 08:11:00,
2013-05-14 02:16:00,54.7,38.4,29.98,North,0,6.3,7.2,54,0.00,,,0.00,WUHU216HW,2013-05-14 08:16:00,
2013-05-14 02:21:00,54.7,38.4,29.98,North,0,5.1,10.5,54,0.00,,,0.00,WUHU216HW,2013-05-14 08:21:00,
2013-05-14 02:26:00,54.5,38.2,29.98,North,0,4.7,10.5,54,0.00,,,0.00,WUHU216HW,2013-05-14 08:26:00,
2013-05-14 02:31:00,54.4,38.0,29.98,North,0,8.5,8.7,54,0.00,,,0.00,WUHU216HW,2013-05-14 08:31:00,
2013-05-14 02:36:00,54.2,37.8,29.99,North,0,5.4,8.5,54,0.00,,,0.00,WUHU216HW,2013-05-14 08:36:00,
2013-05-14 02:41:00,53.6,37.4,29.99,NNE,23,6.9,6.9,54,0.00,,,0.00,WUHU216HW,2013-05-14 08:41:00,
2013-05-14 02:46:00,53.6,37.8,29.99,North,0,6.9,9.4,55,0.00,,,0.00,WUHU216HW,2013-05-14 08:46:00,
2013-05-14 02:51:00,53.3,37.4,29.99,North,0,8.3,9.4,55,0.00,,,0.00,WUHU216HW,2013-05-14 08:51:00,
2013-05-14 02:56:00,52.9,37.1,29.99,NNE,23,5.8,8.3,55,0.00,,,0.00,WUHU216HW,2013-05-14 08:56:00,
2013-05-14 03:01:00,52.7,36.9,29.99,NNE,23,6.0,7.8,55,0.00,,,0.00,WUHU216HW,2013-05-14 09:01:00,
2013-05-14 03:06:00,52.4,36.6,29.99,North,0,5.4,6.7,55,0.00,,,0.00,WUHU216HW,2013-05-14 09:06:00,
2013-05-14 03:11:00,52.4,36.6,29.99,NNW,338,6.7,8.7,55,0.00,,,0.00,WUHU216HW,2013-05-14 09:11:00,
2013-05-14 03:16:00,52.2,36.5,29.99,North,0,4.7,8.7,55,0.00,,,0.00,WUHU216HW,2013-05-14 09:16:00,
2013-05-14 03:21:00,52.0,36.3,30.00,NNE,23,4.0,6.3,55,0.00,,,0.00,WUHU216HW,2013-05-14 09:21:00,
2013-05-14 03:26:00,51.8,36.1,29.99,NNE,23,8.7,8.7,55,0.00,,,0.00,WUHU216HW,2013-05-14 09:26:00,
2013-05-14 03:31:00,51.8,35.6,30.00,North,0,5.6,9.2,54,0.00,,,0.00,WUHU216HW,2013-05-14 09:31:00,
2013-05-14 03:36:00,51.7,35.5,29.99,North,0,4.0,9.8,54,0.00,,,0.00,WUHU216HW,2013-05-14 09:36:00,
2013-05-14 03:41:00,51.3,35.2,30.00,North,0,6.0,9.8,54,0.00,,,0.00,WUHU216HW,2013-05-14 09:41:00,
2013-05-14 03:46:00,51.1,35.0,30.00,NNE,23,4.0,7.4,54,0.00,,,0.00,WUHU216HW,2013-05-14 09:46:00,
2013-05-14 03:51:00,50.8,34.7,30.00,North,0,4.0,6.3,54,0.00,,,0.00,WUHU216HW,2013-05-14 09:51:00,
2013-05-14 03:56:00,50.6,34.5,30.00,North,0,4.3,6.3,54,0.00,,,0.00,WUHU216HW,2013-05-14 09:56:00,
2013-05-14 04:01:00,50.6,34.5,30.00,North,0,5.8,6.3,54,0.00,,,0.00,WUHU216HW,2013-05-14 10:01:00,
2013-05-14 04:06:00,50.9,34.8,29.99,NE,45,7.6,8.1,54,0.00,,,0.00,WUHU216HW,2013-05-14 10:06:00,
2013-05-14 04:11:00,50.8,34.2,29.99,NE,45,6.3,8.1,53,0.00,,,0.00,WUHU216HW,2013-05-14 10:11:00,
2013-05-14 04:16:00,50.8,34.2,30.00,NNE,23,6.3,7.6,53,0.00,,,0.00,WUHU216HW,2013-05-14 10:16:00,
2013-05-14 04:21:00,50.6,34.0,30.00,NNE,23,2.0,6.9,53,0.00,,,0.00,WUHU216HW,2013-05-14 10:21:00,
2013-05-14 04:26:00,50.0,34.0,29.99,NE,45,2.7,5.4,54,0.00,,,0.00,WUHU216HW,2013-05-14 10:26:00,
2013-05-14 04:31:00,49.7,33.7,29.99,NNE,23,1.1,4.7,54,0.00,,,0.00,WUHU216HW,2013-05-14 10:31:00,
2013-05-14 04:36:00,49.3,33.8,29.99,North,0,1.8,3.4,55,0.00,,,0.00,WUHU216HW,2013-05-14 10:36:00,
2013-05-14 04:41:00,49.0,33.9,29.99,North,0,2.2,2.2,56,0.00,,,0.00,WUHU216HW,2013-05-14 10:41:00,
2013-05-14 04:46:00,48.6,34.0,29.99,NNW,338,1.8,2.2,57,0.00,,,0.00,WUHU216HW,2013-05-14 10:46:00,
2013-05-14 04:51:00,48.2,32.8,29.99,ENE,68,0.9,2.2,55,0.00,,,0.00,WUHU216HW,2013-05-14 10:51:00,
2013-05-14 04:56:00,47.5,32.6,29.98,NNE,23,1.1,1.8,56,0.00,,,0.00,WUHU216HW,2013-05-14 10:56:00,
2013-05-14 05:01:00,46.8,32.3,29.99,NNE,23,0.2,1.8,57,0.00,,,0.00,WUHU216HW,2013-05-14 11:01:00,
2013-05-14 05:06:00,46.4,32.9,29.99,NW,315,2.5,2.7,59,0.00,,,0.00,WUHU216HW,2013-05-14 11:06:00,
2013-05-14 05:11:00,46.3,32.2,29.99,SE,135,1.1,3.1,58,0.00,,,0.00,WUHU216HW,2013-05-14 11:11:00,
2013-05-14 05:16:00,45.9,31.5,29.99,East,90,1.1,3.1,57,0.00,,,0.00,WUHU216HW,2013-05-14 11:16:00,
2013-05-14 05:21:00,45.2,30.8,29.99,North,0,0.9,1.8,57,0.00,,,0.00,WUHU216HW,2013-05-14 11:21:00,
2013-05-14 05:26:00,44.6,29.9,29.99,NNE,23,1.3,1.3,56,0.00,,,0.00,WUHU216HW,2013-05-14 11:26:00,
2013-05-14 05:31:00,44.3,30.0,29.99,NE,45,1.8,2.7,57,0.00,,,0.00,WUHU216HW,2013-05-14 11:31:00,
2013-05-14 05:36:00,43.7,29.9,29.99,ENE,68,1.6,2.7,58,0.00,,,0.00,WUHU216HW,2013-05-14 11:36:00,
2013-05-14 05:41:00,43.6,30.2,29.99,ENE,68,0.0,2.0,59,0.00,,,0.00,WUHU216HW,2013-05-14 11:41:00,
2013-05-14 05:46:00,43.2,30.2,29.99,NE,45,2.5,2.5,60,0.00,,,0.00,WUHU216HW,2013-05-14 11:46:00,
2013-05-14 05:51:00,42.8,30.2,29.99,NE,45,3.4,3.4,61,0.00,,,0.00,WUHU216HW,2013-05-14 11:51:00,
2013-05-14 05:56:00,42.8,31.1,29.99,ENE,68,2.0,3.4,63,0.00,,,0.00,WUHU216HW,2013-05-14 11:56:00,
2013-05-14 06:01:00,42.8,30.7,29.99,NE,45,3.6,3.6,62,0.00,,,0.00,WUHU216HW,2013-05-14 12:01:00,
2013-05-14 06:06:00,42.7,30.9,30.00,NE,45,4.0,4.5,63,0.00,,,0.00,WUHU216HW,2013-05-14 12:06:00,
2013-05-14 06:12:00,42.5,31.2,30.00,ENE,68,2.5,4.5,64,0.00,,,0.00,WUHU216HW,2013-05-14 12:12:00,
2013-05-14 06:17:00,42.5,31.2,30.00,ENE,68,3.6,4.0,64,0.00,,,0.00,WUHU216HW,2013-05-14 12:17:00,
2013-05-14 06:22:00,42.5,31.5,30.00,ENE,68,4.0,4.0,65,0.00,,,0.00,WUHU216HW,2013-05-14 12:22:00,
2013-05-14 06:27:00,42.7,32.0,30.00,ENE,68,4.9,4.9,66,0.00,,,0.00,WUHU216HW,2013-05-14 12:27:00,
2013-05-14 06:32:00,42.7,31.7,30.00,ENE,68,1.8,4.9,65,0.00,,,0.00,WUHU216HW,2013-05-14 12:32:00,
2013-05-14 06:37:00,42.8,31.5,30.01,East,90,2.2,3.8,64,0.00,,,0.00,WUHU216HW,2013-05-14 12:37:00,
2013-05-14 06:42:00,42.8,31.5,30.01,ENE,68,2.0,2.5,64,0.00,,,0.00,WUHU216HW,2013-05-14 12:42:00,
2013-05-14 06:47:00,43.0,31.7,30.00,ENE,68,3.1,3.1,64,0.00,,,0.00,WUHU216HW,2013-05-14 12:47:00,
2013-05-14 06:52:00,43.6,32.6,30.01,NW,315,0.9,3.1,65,0.00,,,0.00,WUHU216HW,2013-05-14 12:52:00,
2013-05-14 06:57:00,43.9,32.5,30.01,ESE,113,1.3,2.9,64,0.00,,,0.00,WUHU216HW,2013-05-14 12:57:00,
2013-05-14 07:02:00,44.3,32.9,30.01,ESE,113,0.9,2.9,64,0.00,,,0.00,WUHU216HW,2013-05-14 13:02:00,
2013-05-14 07:07:00,44.8,32.9,30.01,East,90,2.2,2.5,63,0.00,,,0.00,WUHU216HW,2013-05-14 13:07:00,
2013-05-14 07:12:00,45.2,33.0,30.01,East,90,0.4,3.4,62,0.00,,,0.00,WUHU216HW,2013-05-14 13:12:00,
2013-05-14 07:17:00,45.4,33.1,30.02,SSE,158,1.6,3.4,62,0.00,,,0.00,WUHU216HW,2013-05-14 13:17:00,
2013-05-14 07:22:00,45.7,33.4,30.02,ENE,68,1.1,2.5,62,0.00,,,0.00,WUHU216HW,2013-05-14 13:22:00,
2013-05-14 07:27:00,46.1,33.4,30.02,ENE,68,0.0,2.5,61,0.00,,,0.00,WUHU216HW,2013-05-14 13:27:00,
2013-05-14 07:32:00,46.4,33.7,30.02,SSW,203,0.9,1.3,61,0.00,,,0.00,WUHU216HW,2013-05-14 13:32:00,
2013-05-14 07:37:00,47.0,34.2,30.02,South,180,0.4,1.6,61,0.00,,,0.00,WUHU216HW,2013-05-14 13:37:00,
2013-05-14 07:42:00,47.5,34.7,30.02,SSW,203,0.0,1.6,61,0.00,,,0.00,WUHU216HW,2013-05-14 13:42:00,
2013-05-14 07:47:00,47.9,35.1,30.02,SSW,203,0.0,1.1,61,0.00,,,0.00,WUHU216HW,2013-05-14 13:47:00,
2013-05-14 07:52:00,48.6,35.5,30.02,SE,135,2.2,2.2,60,0.00,,,0.00,WUHU216HW,2013-05-14 13:52:00,
2013-05-14 07:57:00,49.0,35.3,30.02,SE,135,1.1,2.2,59,0.00,,,0.00,WUHU216HW,2013-05-14 13:57:00,
2013-05-14 08:02:00,49.7,35.9,30.02,SSE,158,0.4,1.8,59,0.00,,,0.00,WUHU216HW,2013-05-14 14:02:00,
2013-05-14 08:07:00,50.0,35.8,30.02,SSE,158,0.4,1.8,58,0.00,,,0.00,WUHU216HW,2013-05-14 14:07:00,
2013-05-14 08:12:00,50.8,36.0,30.02,SSW,203,0.0,0.7,57,0.00,,,0.00,WUHU216HW,2013-05-14 14:12:00,
2013-05-14 08:17:00,51.1,35.5,30.02,South,180,0.7,1.1,55,0.00,,,0.00,WUHU216HW,2013-05-14 14:17:00,
2013-05-14 08:22:00,51.5,35.7,30.02,SSW,203,0.9,1.6,55,0.00,,,0.00,WUHU216HW,2013-05-14 14:22:00,
2013-05-14 08:27:00,52.2,36.0,30.02,NW,315,1.6,2.5,54,0.00,,,0.00,WUHU216HW,2013-05-14 14:27:00,
2013-05-14 08:32:00,53.1,35.0,30.02,North,0,1.8,2.5,50,0.00,,,0.00,WUHU216HW,2013-05-14 14:32:00,
2013-05-14 08:37:00,54.0,33.6,30.02,NW,315,2.9,3.8,46,0.00,,,0.00,WUHU216HW,2013-05-14 14:37:00,
2013-05-14 08:42:00,54.7,33.1,30.02,NE,45,4.3,4.3,44,0.00,,,0.00,WUHU216HW,2013-05-14 14:42:00,
2013-05-14 08:47:00,55.6,33.3,30.02,NW,315,5.6,5.6,43,0.00,,,0.00,WUHU216HW,2013-05-14 14:47:00,
2013-05-14 08:52:00,56.0,32.6,30.02,North,0,4.0,5.6,41,0.00,,,0.00,WUHU216HW,2013-05-14 14:52:00,
2013-05-14 08:57:00,56.7,32.7,30.02,NNW,338,3.8,5.4,40,0.00,,,0.00,WUHU216HW,2013-05-14 14:57:00,
2013-05-14 09:02:00,57.2,32.4,30.02,North,0,2.0,5.4,39,0.00,,,0.00,WUHU216HW,2013-05-14 15:02:00,
2013-05-14 09:07:00,57.6,32.0,30.02,NNW,338,4.7,5.4,38,0.00,,,0.00,WUHU216HW,2013-05-14 15:07:00,
2013-05-14 09:12:00,58.0,31.7,30.02,North,0,2.7,7.8,37,0.00,,,0.00,WUHU216HW,2013-05-14 15:12:00,
2013-05-14 09:17:00,58.7,31.6,30.02,NNE,23,6.9,7.8,36,0.00,,,0.00,WUHU216HW,2013-05-14 15:17:00,
2013-05-14 09:22:00,59.0,32.0,30.02,North,0,1.8,9.2,36,0.00,,,0.00,WUHU216HW,2013-05-14 15:22:00,
2013-05-14 09:27:00,59.0,30.5,30.02,NNW,338,5.8,9.2,34,0.00,,,0.00,WUHU216HW,2013-05-14 15:27:00,
2013-05-14 09:32:00,59.0,31.2,30.02,NNW,338,3.1,6.9,35,0.00,,,0.00,WUHU216HW,2013-05-14 15:32:00,
2013-05-14 09:37:00,59.0,31.2,30.02,NE,45,1.1,6.3,35,0.00,,,0.00,WUHU216HW,2013-05-14 15:37:00,
2013-05-14 09:42:00,59.6,31.0,30.02,WNW,293,3.4,6.3,34,0.00,,,0.00,WUHU216HW,2013-05-14 15:42:00,
2013-05-14 09:47:00,59.9,30.6,30.01,North,0,8.1,8.1,33,0.00,,,0.00,WUHU216HW,2013-05-14 15:47:00,
2013-05-14 09:52:00,59.9,30.6,30.02,NNE,23,6.5,8.1,33,0.00,,,0.00,WUHU216HW,2013-05-14 15:52:00,
2013-05-14 09:57:00,60.1,30.7,30.01,NNW,338,2.5,6.7,33,0.00,,,0.00,WUHU216HW,2013-05-14 15:57:00,
2013-05-14 10:02:00,60.3,30.2,30.01,NNW,338,5.1,7.2,32,0.00,,,0.00,WUHU216HW,2013-05-14 16:02:00,
2013-05-14 10:07:00,60.5,30.3,30.01,North,0,3.4,7.2,32,0.00,,,0.00,WUHU216HW,2013-05-14 16:07:00,
2013-05-14 10:12:00,60.7,30.4,30.01,NW,315,3.4,9.2,32,0.00,,,0.00,WUHU216HW,2013-05-14 16:12:00,
2013-05-14 10:17:00,60.7,29.7,30.01,NW,315,2.5,9.2,31,0.00,,,0.00,WUHU216HW,2013-05-14 16:17:00,
2013-05-14 10:22:00,60.8,30.6,30.01,NW,315,4.7,8.5,32,0.00,,,0.00,WUHU216HW,2013-05-14 16:22:00,
2013-05-14 10:27:00,60.8,30.6,30.01,NNW,338,4.3,8.5,32,0.00,,,0.00,WUHU216HW,2013-05-14 16:27:00,
2013-05-14 10:32:00,61.0,30.8,30.00,NW,315,3.8,6.7,32,0.00,,,0.00,WUHU216HW,2013-05-14 16:32:00,
2013-05-14 10:37:00,61.4,31.1,30.00,NW,315,8.3,8.3,32,0.00,,,0.00,WUHU216HW,2013-05-14 16:37:00,
2013-05-14 10:42:00,61.6,30.5,30.00,WNW,293,4.5,8.3,31,0.00,,,0.00,WUHU216HW,2013-05-14 16:42:00,
2013-05-14 10:47:00,61.7,30.7,30.00,NW,315,3.4,6.5,31,0.00,,,0.00,WUHU216HW,2013-05-14 16:47:00,
2013-05-14 10:52:00,62.3,31.1,30.00,NNE,23,5.1,8.1,31,0.00,,,0.00,WUHU216HW,2013-05-14 16:52:00,
2013-05-14 10:57:00,62.5,31.3,29.99,North,0,4.9,8.1,31,0.00,,,0.00,WUHU216HW,2013-05-14 16:57:00,
2013-05-14 11:02:00,62.6,30.8,30.00,West,270,4.7,8.9,30,0.00,,,0.00,WUHU216HW,2013-05-14 17:02:00,
2013-05-14 11:07:00,63.0,30.2,30.00,North,0,6.0,8.9,29,0.00,,,0.00,WUHU216HW,2013-05-14 17:07:00,
2013-05-14 11:12:00,62.8,31.7,29.99,WSW,248,1.3,6.5,31,0.00,,,0.00,WUHU216HW,2013-05-14 17:12:00,
2013-05-14 11:17:00,63.2,30.3,29.99,North,0,4.9,4.9,29,0.00,,,0.00,WUHU216HW,2013-05-14 17:17:00,
2013-05-14 11:22:00,63.7,31.8,29.99,North,0,0.4,4.9,30,0.00,,,0.00,WUHU216HW,2013-05-14 17:22:00,
2013-05-14 11:27:00,64.1,31.1,29.99,SW,225,1.3,6.5,29,0.00,,,0.00,WUHU216HW,2013-05-14 17:27:00,
2013-05-14 11:32:00,64.1,31.1,29.99,NNW,338,6.9,9.6,29,0.00,,,0.00,WUHU216HW,2013-05-14 17:32:00,
2013-05-14 11:38:00,64.1,31.1,29.99,NW,315,5.8,9.6,29,0.00,,,0.00,WUHU216HW,2013-05-14 17:38:00,
2013-05-14 11:43:00,64.1,31.1,29.99,North,0,0.4,8.1,29,0.00,,,0.00,WUHU216HW,2013-05-14 17:43:00,
2013-05-14 11:48:00,64.6,31.6,29.98,North,0,3.6,8.1,29,0.00,,,0.00,WUHU216HW,2013-05-14 17:48:00,
2013-05-14 11:53:00,65.2,32.0,29.98,North,0,4.0,8.5,29,0.00,,,0.00,WUHU216HW,2013-05-14 17:53:00,
2013-05-14 11:58:00,65.2,32.0,29.98,WNW,293,3.1,8.5,29,0.00,,,0.00,WUHU216HW,2013-05-14 17:58:00,
2013-05-14 12:03:00,65.5,32.4,29.98,North,0,4.5,6.3,29,0.00,,,0.00,WUHU216HW,2013-05-14 18:03:00,
2013-05-14 12:08:00,65.7,32.5,29.98,ENE,68,3.6,6.3,29,0.00,,,0.00,WUHU216HW,2013-05-14 18:08:00,
2013-05-14 12:13:00,66.1,32.9,29.98,ENE,68,1.8,6.0,29,0.00,,,0.00,WUHU216HW,2013-05-14 18:13:00,
2013-05-14 12:18:00,66.6,32.3,29.98,North,0,6.5,6.5,28,0.00,,,0.00,WUHU216HW,2013-05-14 18:18:00,
2013-05-14 12:23:00,67.0,30.6,29.97,ENE,68,6.3,7.2,26,0.00,,,0.00,WUHU216HW,2013-05-14 18:23:00,
2013-05-14 12:28:00,67.1,29.7,29.97,North,0,8.9,8.9,25,0.00,,,0.00,WUHU216HW,2013-05-14 18:28:00,
2013-05-14 12:33:00,67.1,30.8,29.97,North,0,1.3,8.9,26,0.00,,,0.00,WUHU216HW,2013-05-14 18:33:00,
2013-05-14 12:38:00,67.7,31.2,29.96,NW,315,3.4,6.7,26,0.00,,,0.00,WUHU216HW,2013-05-14 18:38:00,
2013-05-14 12:43:00,67.9,29.3,29.96,NE,45,6.3,6.7,24,0.00,,,0.00,WUHU216HW,2013-05-14 18:43:00,
2013-05-14 12:48:00,68.6,30.0,29.96,NW,315,4.9,6.7,24,0.00,,,0.00,WUHU216HW,2013-05-14 18:48:00,
2013-05-14 12:53:00,68.6,29.0,29.96,NNW,338,2.7,10.7,23,0.00,,,0.00,WUHU216HW,2013-05-14 18:53:00,
2013-05-14 12:58:00,68.2,29.7,29.96,WNW,293,1.6,10.7,24,0.00,,,0.00,WUHU216HW,2013-05-14 18:58:00,
2013-05-14 13:03:00,68.6,30.0,29.96,West,270,1.1,6.9,24,0.00,,,0.00,WUHU216HW,2013-05-14 19:03:00,
2013-05-14 13:08:00,69.1,29.4,29.95,WNW,293,8.9,12.1,23,0.00,,,0.00,WUHU216HW,2013-05-14 19:08:00,
2013-05-14 13:13:00,69.1,29.4,29.95,North,0,3.6,12.1,23,0.00,,,0.00,WUHU216HW,2013-05-14 19:13:00,
2013-05-14 13:18:00,69.1,29.4,29.95,NNW,338,4.3,5.4,23,0.00,,,0.00,WUHU216HW,2013-05-14 19:18:00,
2013-05-14 13:23:00,69.3,29.6,29.95,NNW,338,5.6,6.3,23,0.00,,,0.00,WUHU216HW,2013-05-14 19:23:00,
2013-05-14 13:28:00,69.5,29.7,29.95,NNW,338,4.3,6.3,23,0.00,,,0.00,WUHU216HW,2013-05-14 19:28:00,
2013-05-14 13:33:00,69.7,28.9,29.95,NNW,338,9.8,11.6,22,0.00,,,0.00,WUHU216HW,2013-05-14 19:33:00,
2013-05-14 13:38:00,69.5,29.7,29.95,North,0,0.7,11.6,23,0.00,,,0.00,WUHU216HW,2013-05-14 19:38:00,
2013-05-14 13:43:00,69.5,29.7,29.94,NW,315,4.0,10.7,23,0.00,,,0.00,WUHU216HW,2013-05-14 19:43:00,
2013-05-14 13:48:00,69.8,29.0,29.94,North,0,4.9,10.7,22,0.00,,,0.00,WUHU216HW,2013-05-14 19:48:00,
2013-05-14 13:53:00,70.2,30.3,29.93,WSW,248,9.8,10.3,23,0.00,,,0.00,WUHU216HW,2013-05-14 19:53:00,
2013-05-14 13:58:00,70.2,29.4,29.93,NW,315,4.7,9.8,22,0.00,,,0.00,WUHU216HW,2013-05-14 19:58:00,
2013-05-14 14:03:00,70.9,29.9,29.93,WNW,293,10.5,10.5,22,0.00,,,0.00,WUHU216HW,2013-05-14 20:03:00,
2013-05-14 14:08:00,70.7,29.8,29.93,NW,315,8.1,10.5,22,0.00,,,0.00,WUHU216HW,2013-05-14 20:08:00,
2013-05-14 14:13:00,70.9,29.9,29.93,WNW,293,6.9,9.4,22,0.00,,,0.00,WUHU216HW,2013-05-14 20:13:00,
2013-05-14 14:18:00,71.3,30.3,29.92,North,0,2.0,8.5,22,0.00,,,0.00,WUHU216HW,2013-05-14 20:18:00,
2013-05-14 14:23:00,71.3,29.2,29.92,WNW,293,2.0,9.4,21,0.00,,,0.00,WUHU216HW,2013-05-14 20:23:00,
2013-05-14 14:28:00,71.6,29.4,29.92,NNW,338,2.5,9.8,21,0.00,,,0.00,WUHU216HW,2013-05-14 20:28:00,
2013-05-14 14:33:00,71.8,29.6,29.92,NNW,338,7.6,12.3,21,0.00,,,0.00,WUHU216HW,2013-05-14 20:33:00,
2013-05-14 14:38:00,72.0,29.8,29.92,WNW,293,5.4,12.3,21,0.00,,,0.00,WUHU216HW,2013-05-14 20:38:00,
2013-05-14 14:43:00,71.8,29.6,29.91,North,0,9.4,9.8,21,0.00,,,0.00,WUHU216HW,2013-05-14 20:43:00,
2013-05-14 14:48:00,71.8,29.6,29.91,NNW,338,9.2,9.8,21,0.00,,,0.00,WUHU216HW,2013-05-14 20:48:00,
2013-05-14 14:53:00,72.2,30.0,29.91,NW,315,6.3,10.1,21,0.00,,,0.00,WUHU216HW,2013-05-14 20:53:00,
2013-05-14 14:58:00,72.4,30.2,29.91,NW,315,7.4,10.1,21,0.00,,,0.00,WUHU216HW,2013-05-14 20:58:00,
2013-05-14 15:03:00,72.9,27.9,29.91,NW,315,7.6,12.5,19,0.00,,,0.00,WUHU216HW,2013-05-14 21:03:00,
2013-05-14 15:08:00,72.7,27.8,29.91,North,0,12.5,12.5,19,0.00,,,0.00,WUHU216HW,2013-05-14 21:08:00,
2013-05-14 15:13:00,72.5,27.6,29.91,NNW,338,4.9,12.5,19,0.00,,,0.00,WUHU216HW,2013-05-14 21:13:00,
2013-05-14 15:18:00,72.7,27.8,29.90,NNW,338,9.2,12.1,19,0.00,,,0.00,WUHU216HW,2013-05-14 21:18:00,
2013-05-14 15:23:00,72.9,27.9,29.90,North,0,6.0,11.6,19,0.00,,,0.00,WUHU216HW,2013-05-14 21:23:00,
2013-05-14 15:28:00,72.9,27.9,29.90,NW,315,13.2,13.2,19,0.00,,,0.00,WUHU216HW,2013-05-14 21:28:00,
2013-05-14 15:33:00,73.1,26.5,29.90,North,0,7.6,13.2,18,0.00,,,0.00,WUHU216HW,2013-05-14 21:33:00,
2013-05-14 15:38:00,72.7,26.2,29.90,NNW,338,8.5,13.0,18,0.00,,,0.00,WUHU216HW,2013-05-14 21:38:00,
2013-05-14 15:43:00,72.7,26.2,29.90,NNW,338,9.8,11.6,18,0.00,,,0.00,WUHU216HW,2013-05-14 21:43:00,
2013-05-14 15:48:00,73.3,26.7,29.90,NNW,338,8.7,11.6,18,0.00,,,0.00,WUHU216HW,2013-05-14 21:48:00,
2013-05-14 15:53:00,73.3,26.7,29.90,NW,315,7.8,11.4,18,0.00,,,0.00,WUHU216HW,2013-05-14 21:53:00,
2013-05-14 15:58:00,73.3,26.7,29.89,North,0,7.6,12.3,18,0.00,,,0.00,WUHU216HW,2013-05-14 21:58:00,
2013-05-14 16:03:00,73.6,25.3,29.89,NW,315,9.4,12.8,17,0.00,,,0.00,WUHU216HW,2013-05-14 22:03:00,
2013-05-14 16:08:00,73.4,25.1,29.89,North,0,9.8,13.9,17,0.00,,,0.00,WUHU216HW,2013-05-14 22:08:00,
2013-05-14 16:13:00,73.4,26.8,29.89,NNE,23,9.8,13.9,18,0.00,,,0.00,WUHU216HW,2013-05-14 22:13:00,
2013-05-14 16:18:00,73.3,25.0,29.88,NW,315,7.6,11.4,17,0.00,,,0.00,WUHU216HW,2013-05-14 22:18:00,
2013-05-14 16:23:00,73.4,25.1,29.89,NW,315,6.0,14.1,17,0.00,,,0.00,WUHU216HW,2013-05-14 22:23:00,
2013-05-14 16:28:00,73.8,25.4,29.88,NW,315,12.1,14.1,17,0.00,,,0.00,WUHU216HW,2013-05-14 22:28:00,
2013-05-14 16:33:00,73.8,23.8,29.88,NNW,338,4.7,13.4,16,0.00,,,0.00,WUHU216HW,2013-05-14 22:33:00,
2013-05-14 16:38:00,74.2,24.0,29.88,NW,315,10.3,13.4,16,0.00,,,0.00,WUHU216HW,2013-05-14 22:38:00,
2013-05-14 16:43:00,74.5,24.3,29.88,North,0,8.1,13.4,16,0.00,,,0.00,WUHU216HW,2013-05-14 22:43:00,
2013-05-14 16:48:00,74.9,24.6,29.88,NNW,338,5.1,12.3,16,0.00,,,0.00,WUHU216HW,2013-05-14 22:48:00,
2013-05-14 16:53:00,75.8,23.7,29.88,North,0,8.1,12.3,15,0.00,,,0.00,WUHU216HW,2013-05-14 22:53:00,
2013-05-14 16:58:00,75.8,23.7,29.88,NNE,23,6.9,12.3,15,0.00,,,0.00,WUHU216HW,2013-05-14 22:58:00,
2013-05-14 17:03:00,75.8,23.7,29.88,North,0,7.2,11.4,15,0.00,,,0.00,WUHU216HW,2013-05-14 23:03:00,
2013-05-14 17:08:00,76.3,24.1,29.88,NNW,338,11.2,11.4,15,0.00,,,0.00,WUHU216HW,2013-05-14 23:08:00,
2013-05-14 17:13:00,76.3,24.1,29.88,North,0,11.0,14.5,15,0.00,,,0.00,WUHU216HW,2013-05-14 23:13:00,
2013-05-14 17:18:00,76.7,24.4,29.87,NNE,23,6.3,14.5,15,0.00,,,0.00,WUHU216HW,2013-05-14 23:18:00,
2013-05-14 17:24:00,76.3,24.1,29.88,NNW,338,14.1,14.1,15,0.00,,,0.00,WUHU216HW,2013-05-14 23:24:00,
2013-05-14 17:29:00,75.8,23.7,29.87,NNW,338,10.1,14.1,15,0.00,,,0.00,WUHU216HW,2013-05-14 23:29:00,
2013-05-14 17:34:00,76.0,23.8,29.87,North,0,12.8,12.8,15,0.00,,,0.00,WUHU216HW,2013-05-14 23:34:00,
2013-05-14 17:39:00,76.0,23.8,29.87,NNW,338,13.2,14.1,15,0.00,,,0.00,WUHU216HW,2013-05-14 23:39:00,
2013-05-14 17:43:00,76.0,23.8,29.87,NNW,338,10.1,14.1,15,0.00,,,0.00,WUHU216HW,2013-05-14 23:43:00,
2013-05-14 17:48:00,76.3,20.8,29.87,North,0,13.6,15.0,13,0.00,,,0.00,WUHU216HW,2013-05-14 23:48:00,
2013-05-14 17:53:00,75.6,23.5,29.87,North,0,16.1,16.1,15,0.00,,,0.00,WUHU216HW,2013-05-14 23:53:00,
2013-05-14 17:58:00,75.6,20.2,29.87,NE,45,18.1,18.1,13,0.00,,,0.00,WUHU216HW,2013-05-14 23:58:00,
2013-05-14 18:03:00,75.6,20.2,29.87,NNW,338,10.3,18.1,13,0.00,,,0.00,WUHU216HW,2013-05-15 00:03:00,
2013-05-14 18:08:00,75.8,20.3,29.87,NNW,338,8.7,16.8,13,0.00,,,0.00,WUHU216HW,2013-05-15 00:08:00,
2013-05-14 18:13:00,75.4,20.1,29.87,North,0,15.7,15.7,13,0.00,,,0.00,WUHU216HW,2013-05-15 00:13:00,
2013-05-14 18:18:00,74.5,19.4,29.87,North,0,14.1,17.9,13,0.00,,,0.00,WUHU216HW,2013-05-15 00:18:00,
2013-05-14 18:23:00,74.5,21.1,29.87,NNE,23,13.9,17.9,14,0.00,,,0.00,WUHU216HW,2013-05-15 00:23:00,
2013-05-14 18:28:00,74.7,19.5,29.87,North,0,11.6,17.9,13,0.00,,,0.00,WUHU216HW,2013-05-15 00:28:00,
2013-05-14 18:33:00,74.5,19.4,29.86,North,0,14.8,17.2,13,0.00,,,0.00,WUHU216HW,2013-05-15 00:33:00,
2013-05-14 18:38:00,74.3,19.3,29.87,NW,315,11.0,17.2,13,0.00,,,0.00,WUHU216HW,2013-05-15 00:38:00,
2013-05-14 18:43:00,74.3,19.3,29.87,North,0,13.0,19.0,13,0.00,,,0.00,WUHU216HW,2013-05-15 00:43:00,
2013-05-14 18:48:00,74.2,19.1,29.87,NNW,338,9.6,19.0,13,0.00,,,0.00,WUHU216HW,2013-05-15 00:48:00,
2013-05-14 18:53:00,73.8,18.9,29.87,NNW,338,10.7,15.4,13,0.00,,,0.00,WUHU216HW,2013-05-15 00:53:00,
2013-05-14 18:59:00,73.6,18.7,29.88,North,0,10.5,17.0,13,0.00,,,0.00,WUHU216HW,2013-05-15 00:59:00,
2013-05-14 19:04:00,72.9,18.2,29.88,NNW,338,8.9,17.0,13,0.00,,,0.00,WUHU216HW,2013-05-15 01:04:00,
2013-05-14 19:09:00,72.5,17.8,29.88,NW,315,9.4,19.0,13,0.00,,,0.00,WUHU216HW,2013-05-15 01:09:00,
2013-05-14 19:14:00,72.0,19.0,29.88,North,0,9.2,19.0,14,0.00,,,0.00,WUHU216HW,2013-05-15 01:14:00,
2013-05-14 19:19:00,72.4,19.4,29.89,North,0,13.0,13.0,14,0.00,,,0.00,WUHU216HW,2013-05-15 01:19:00,
2013-05-14 19:24:00,71.5,20.2,29.89,North,0,16.3,16.3,15,0.00,,,0.00,WUHU216HW,2013-05-15 01:24:00,
2013-05-14 19:29:00,71.1,19.9,29.89,North,0,13.6,16.3,15,0.00,,,0.00,WUHU216HW,2013-05-15 01:29:00,
2013-05-14 19:34:00,70.7,19.6,29.89,North,0,13.9,15.0,15,0.00,,,0.00,WUHU216HW,2013-05-15 01:34:00,
2013-05-14 19:39:00,69.8,20.5,29.89,North,0,10.5,15.0,16,0.00,,,0.00,WUHU216HW,2013-05-15 01:39:00,
2013-05-14 19:44:00,69.1,20.0,29.90,North,0,9.8,11.4,16,0.00,,,0.00,WUHU216HW,2013-05-15 01:44:00,
2013-05-14 19:49:00,68.4,21.1,29.91,North,0,9.4,14.3,17,0.00,,,0.00,WUHU216HW,2013-05-15 01:49:00,
2013-05-14 19:54:00,67.7,20.4,29.91,North,0,9.2,14.3,17,0.00,,,0.00,WUHU216HW,2013-05-15 01:54:00,
2013-05-14 19:59:00,67.1,20.0,29.91,NNW,338,8.3,14.3,17,0.00,,,0.00,WUHU216HW,2013-05-15 01:59:00,
2013-05-14 20:04:00,66.6,21.1,29.91,NNW,338,9.4,16.3,18,0.00,,,0.00,WUHU216HW,2013-05-15 02:04:00,
2013-05-14 20:09:00,66.2,20.8,29.91,NNW,338,7.8,16.3,18,0.00,,,0.00,WUHU216HW,2013-05-15 02:09:00,
2013-05-14 20:14:00,65.7,20.3,29.92,North,0,8.5,15.2,18,0.00,,,0.00,WUHU216HW,2013-05-15 02:14:00,
2013-05-14 20:19:00,65.3,21.6,29.93,North,0,10.3,11.9,19,0.00,,,0.00,WUHU216HW,2013-05-15 02:19:00,
2013-05-14 20:24:00,65.0,21.3,29.93,North,0,9.2,12.8,19,0.00,,,0.00,WUHU216HW,2013-05-15 02:24:00,
2013-05-14 20:29:00,64.6,21.1,29.93,NNW,338,6.9,12.8,19,0.00,,,0.00,WUHU216HW,2013-05-15 02:29:00,
2013-05-14 20:34:00,64.3,20.8,29.93,North,0,6.9,11.9,19,0.00,,,0.00,WUHU216HW,2013-05-15 02:34:00,
2013-05-14 20:39:00,63.9,22.1,29.94,NNW,338,6.7,12.3,20,0.00,,,0.00,WUHU216HW,2013-05-15 02:39:00,
2013-05-14 20:44:00,63.7,23.0,29.94,North,0,8.7,12.3,21,0.00,,,0.00,WUHU216HW,2013-05-15 02:44:00,
2013-05-14 20:49:00,63.4,22.6,29.94,North,0,8.7,10.5,21,0.00,,,0.00,WUHU216HW,2013-05-15 02:49:00,
2013-05-14 20:54:00,63.0,22.3,29.95,North,0,7.6,9.2,21,0.00,,,0.00,WUHU216HW,2013-05-15 02:54:00,
2013-05-14 20:59:00,63.0,22.3,29.95,North,0,6.0,10.3,21,0.00,,,0.00,WUHU216HW,2013-05-15 02:59:00,
2013-05-14 21:04:00,62.6,22.1,29.95,North,0,5.8,10.3,21,0.00,,,0.00,WUHU216HW,2013-05-15 03:04:00,
2013-05-14 21:09:00,62.5,21.9,29.95,NNW,338,7.2,8.9,21,0.00,,,0.00,WUHU216HW,2013-05-15 03:09:00,
2013-05-14 21:14:00,62.3,21.8,29.95,NNE,23,6.3,8.9,21,0.00,,,0.00,WUHU216HW,2013-05-15 03:14:00,
2013-05-14 21:19:00,62.3,21.8,29.96,NE,45,3.1,8.5,21,0.00,,,0.00,WUHU216HW,2013-05-15 03:19:00,
2013-05-14 21:24:00,61.9,21.4,29.96,North,0,7.6,8.5,21,0.00,,,0.00,WUHU216HW,2013-05-15 03:24:00,
2013-05-14 21:29:00,61.7,21.3,29.96,North,0,4.5,7.6,21,0.00,,,0.00,WUHU216HW,2013-05-15 03:29:00,
2013-05-14 21:34:00,61.6,21.2,29.96,NNW,338,7.6,8.7,21,0.00,,,0.00,WUHU216HW,2013-05-15 03:34:00,
2013-05-14 21:39:00,61.7,21.3,29.96,North,0,5.4,8.7,21,0.00,,,0.00,WUHU216HW,2013-05-15 03:39:00,
2013-05-14 21:44:00,61.7,21.3,29.97,NNW,338,6.3,8.9,21,0.00,,,0.00,WUHU216HW,2013-05-15 03:44:00,
2013-05-14 21:49:00,61.6,21.2,29.97,NNW,338,8.1,8.9,21,0.00,,,0.00,WUHU216HW,2013-05-15 03:49:00,
2013-05-14 21:54:00,61.4,21.0,29.97,North,0,5.4,8.1,21,0.00,,,0.00,WUHU216HW,2013-05-15 03:54:00,
2013-05-14 21:59:00,61.2,20.9,29.97,North,0,4.7,7.8,21,0.00,,,0.00,WUHU216HW,2013-05-15 03:59:00,
2013-05-14 22:01:00,61.2,20.9,29.97,North,0,7.6,7.8,21,0.00,,,0.00,WUHU216HW,2013-05-15 04:01:00,
2013-05-14 22:06:00,61.0,20.7,29.97,NNW,338,5.1,7.6,21,0.00,,,0.00,WUHU216HW,2013-05-15 04:06:00,
2013-05-14 22:11:00,60.8,20.6,29.97,NNW,338,3.1,6.3,21,0.00,,,0.00,WUHU216HW,2013-05-15 04:11:00,
2013-05-14 22:16:00,60.7,20.4,29.98,North,0,4.9,7.4,21,0.00,,,0.00,WUHU216HW,2013-05-15 04:16:00,
2013-05-14 22:21:00,60.5,21.3,29.98,NNW,338,5.4,9.2,22,0.00,,,0.00,WUHU216HW,2013-05-15 04:21:00,
2013-05-14 22:27:00,60.3,21.1,29.98,North,0,7.2,9.2,22,0.00,,,0.00,WUHU216HW,2013-05-15 04:27:00,
2013-05-14 22:32:00,60.1,20.9,29.98,North,0,4.5,8.9,22,0.00,,,0.00,WUHU216HW,2013-05-15 04:32:00,
2013-05-14 22:37:00,59.9,21.7,29.98,NNW,338,3.8,8.9,23,0.00,,,0.00,WUHU216HW,2013-05-15 04:37:00,
2013-05-14 22:42:00,59.6,21.4,29.98,NNW,338,5.4,8.5,23,0.00,,,0.00,WUHU216HW,2013-05-15 04:42:00,
2013-05-14 22:47:00,59.4,22.2,29.98,North,0,9.2,9.8,24,0.00,,,0.00,WUHU216HW,2013-05-15 04:47:00,
2013-05-14 22:52:00,59.2,22.1,29.98,North,0,6.9,9.8,24,0.00,,,0.00,WUHU216HW,2013-05-15 04:52:00,
2013-05-14 22:57:00,58.9,21.8,29.98,North,0,7.6,8.9,24,0.00,,,0.00,WUHU216HW,2013-05-15 04:57:00,
2013-05-14 23:02:00,58.5,22.4,29.98,North,0,6.7,8.1,25,0.00,,,0.00,WUHU216HW,2013-05-15 05:02:00,
2013-05-14 23:07:00,58.1,22.1,29.99,NE,45,5.1,6.7,25,0.00,,,0.00,WUHU216HW,2013-05-15 05:07:00,
2013-05-14 23:12:00,57.8,23.7,29.99,NNE,23,4.7,6.0,27,0.00,,,0.00,WUHU216HW,2013-05-15 05:12:00,
2013-05-14 23:17:00,57.6,22.6,29.99,NNE,23,6.0,6.5,26,0.00,,,0.00,WUHU216HW,2013-05-15 05:17:00,
2013-05-14 23:22:00,57.4,23.4,29.99,NE,45,6.9,6.9,27,0.00,,,0.00,WUHU216HW,2013-05-15 05:22:00,
2013-05-14 23:27:00,57.4,22.4,29.99,NE,45,4.7,6.9,26,0.00,,,0.00,WUHU216HW,2013-05-15 05:27:00,
2013-05-14 23:32:00,57.6,21.6,29.99,NE,45,4.3,6.0,25,0.00,,,0.00,WUHU216HW,2013-05-15 05:32:00,
2013-05-14 23:37:00,57.6,21.6,30.00,NE,45,4.5,6.0,25,0.00,,,0.00,WUHU216HW,2013-05-15 05:37:00,
2013-05-14 23:42:00,57.6,21.6,30.00,North,0,6.9,6.9,25,0.00,,,0.00,WUHU216HW,2013-05-15 05:42:00,
2013-05-14 23:47:00,58.0,22.0,30.00,North,0,8.1,10.1,25,0.00,,,0.00,WUHU216HW,2013-05-15 05:47:00,
2013-05-14 23:52:00,58.1,22.1,30.00,North,0,8.5,10.1,25,0.00,,,0.00,WUHU216HW,2013-05-15 05:52:00,
2013-05-14 23:57:00,58.1,22.1,30.01,NNE,23,7.6,8.9,25,0.00,,,0.00,WUHU216HW,2013-05-15 05:57:00,